| time (UTC) | temp F | wind direction | speed MPH | gust MPH | rain 1hr in | rain 24hr in | rain mn in | humidity % | barometer mb |
| 20260902214822 | 92 | 0 | 0.0 | 3.0 | 0.00 | 0.15 | 0.00 | 68 | 996.7 |
| 20260902214321 | 92 | 0 | 1.0 | 5.0 | 0.00 | 0.15 | 0.00 | 68 | 996.7 |
| 20260902214043 | 91 | 0 | 1.0 | 5.0 | 0.00 | 0.15 | 0.00 | 68 | 996.8 |
| 20260902213541 | 91 | 0 | 2.0 | 4.0 | 0.00 | 0.15 | 0.00 | 69 | 996.7 |
| 20260902212816 | 91 | 165 | 2.0 | 4.0 | 0.00 | 0.15 | 0.00 | 70 | 996.9 |
| 20260902212800 | 91 | 207 | 1.0 | 4.0 | 0.00 | 0.15 | 0.00 | 71 | 996.9 |
| 20260902211816 | 91 | 0 | 1.0 | 4.0 | 0.00 | 0.15 | 0.00 | 71 | 996.9 |
| 20260902211316 | 91 | 0 | 0.0 | 2.0 | 0.00 | 0.15 | 0.00 | 70 | 997.0 |
| 20260902210816 | 91 | 0 | 1.0 | 3.0 | 0.00 | 0.15 | 0.00 | 70 | 997.0 |
| 20260902210316 | 92 | 0 | 1.0 | 3.0 | 0.00 | 0.15 | 0.00 | 69 | 997.2 |
| 20260902205817 | 93 | 0 | 1.0 | 3.0 | 0.00 | 0.15 | 0.00 | 67 | 997.3 |
| 20260902205316 | 94 | 294 | 1.0 | 3.0 | 0.00 | 0.15 | 0.00 | 66 | 997.3 |
| 20260902204816 | 94 | 24 | 2.0 | 4.0 | 0.00 | 0.15 | 0.00 | 65 | 997.4 |
| 20260902204317 | 95 | 0 | 2.0 | 11.0 | 0.00 | 0.15 | 0.00 | 64 | 997.2 |
| 20260902203817 | 95 | 0 | 2.0 | 11.0 | 0.00 | 0.15 | 0.00 | 62 | 997.1 |
| 20260902203544 | 95 | 0 | 2.0 | 8.0 | 0.00 | 0.15 | 0.00 | 63 | 997.1 |
| 20260902202816 | 95 | 0 | 2.0 | 8.0 | 0.00 | 0.15 | 0.00 | 62 | 997.2 |
| 20260902202311 | 95 | 0 | 2.0 | 10.0 | 0.00 | 0.15 | 0.00 | 63 | 997.3 |
| 20260902201812 | 95 | 230 | 3.0 | 12.0 | 0.00 | 0.15 | 0.00 | 63 | 997.3 |
| 20260902201312 | 94 | 167 | 5.0 | 12.0 | 0.00 | 0.15 | 0.00 | 64 | 997.3 |
| 20260902200812 | 94 | 0 | 3.0 | 11.0 | 0.00 | 0.15 | 0.00 | 64 | 997.3 |
| 20260902200312 | 94 | 175 | 2.0 | 10.0 | 0.00 | 0.15 | 0.00 | 64 | 997.3 |
| 20260902195812 | 94 | 0 | 2.0 | 10.0 | 0.00 | 0.15 | 0.00 | 64 | 997.4 |
| 20260902195313 | 95 | 125 | 1.0 | 5.0 | 0.00 | 0.15 | 0.00 | 64 | 997.5 |
| 20260902194812 | 95 | 190 | 1.0 | 8.0 | 0.00 | 0.15 | 0.00 | 64 | 997.6 |
| 20260902194312 | 95 | 118 | 3.0 | 12.0 | 0.00 | 0.15 | 0.00 | 64 | 997.7 |
| 20260902193809 | 95 | 112 | 2.0 | 12.0 | 0.00 | 0.15 | 0.00 | 64 | 997.7 |
| 20260902193308 | 95 | 0 | 1.0 | 5.0 | 0.00 | 0.15 | 0.00 | 65 | 997.8 |
| 20260902192809 | 95 | 0 | 2.0 | 12.0 | 0.00 | 0.15 | 0.00 | 65 | 997.9 |
| 20260902192308 | 94 | 0 | 2.0 | 12.0 | 0.00 | 0.15 | 0.00 | 66 | 998.0 |
| 20260902191807 | 94 | 226 | 2.0 | 8.0 | 0.00 | 0.15 | 0.00 | 66 | 998.1 |
| 20260902191308 | 94 | 0 | 2.0 | 6.0 | 0.00 | 0.15 | 0.00 | 65 | 998.1 |
| 20260902190808 | 94 | 0 | 2.0 | 5.0 | 0.00 | 0.15 | 0.00 | 66 | 998.2 |
| 20260902190524 | 94 | 259 | 2.0 | 7.0 | 0.00 | 0.15 | 0.00 | 66 | 998.3 |
| 20260902185808 | 94 | 0 | 2.0 | 7.0 | 0.00 | 0.15 | 0.00 | 66 | 998.3 |
| 20260902185523 | 94 | 0 | 2.0 | 6.0 | 0.00 | 0.15 | 0.00 | 66 | 998.4 |
| 20260902185026 | 94 | 183 | 2.0 | 6.0 | 0.00 | 0.15 | 0.00 | 67 | 998.5 |
| 20260902184304 | 94 | 0 | 2.0 | 9.0 | 0.00 | 0.15 | 0.00 | 68 | 998.5 |
| 20260902183804 | 94 | 227 | 2.0 | 9.0 | 0.00 | 0.15 | 0.00 | 67 | 998.6 |
| 20260902183304 | 94 | 0 | 3.0 | 9.0 | 0.00 | 0.15 | 0.00 | 69 | 998.8 |
| 20260902182804 | 94 | 196 | 3.0 | 9.0 | 0.00 | 0.15 | 0.00 | 68 | 998.8 |
| 20260902182306 | 94 | 0 | 2.0 | 8.0 | 0.00 | 0.15 | 0.00 | 69 | 998.9 |
| 20260902182025 | 94 | 0 | 2.0 | 9.0 | 0.00 | 0.15 | 0.00 | 70 | 999.0 |
| 20260902181304 | 94 | 183 | 1.0 | 9.0 | 0.00 | 0.15 | 0.00 | 70 | 999.2 |
| 20260902180801 | 93 | 0 | 1.0 | 8.0 | 0.00 | 0.15 | 0.00 | 70 | 999.2 |
| 20260902180301 | 93 | 179 | 2.0 | 7.0 | 0.00 | 0.15 | 0.00 | 71 | 999.4 |
| 20260902175801 | 93 | 305 | 2.0 | 11.0 | 0.00 | 0.15 | 0.00 | 72 | 999.5 |
| 20260902175259 | 93 | 0 | 2.0 | 11.0 | 0.00 | 0.15 | 0.00 | 72 | 999.6 |
| 20260902174800 | 92 | 67 | 3.0 | 10.0 | 0.00 | 0.15 | 0.00 | 72 | 999.8 |
| 20260902174301 | 92 | 121 | 2.0 | 10.0 | 0.00 | 0.15 | 0.00 | 73 | 999.8 |
| 20260902173801 | 92 | 0 | 1.0 | 8.0 | 0.00 | 0.15 | 0.00 | 76 | 999.9 |
| 20260902173301 | 91 | 301 | 1.0 | 3.0 | 0.00 | 0.15 | 0.00 | 77 | 1000.0 |
| 20260902172801 | 91 | 0 | 1.0 | 4.0 | 0.00 | 0.15 | 0.00 | 77 | 1000.0 |
| 20260902172256 | 90 | 0 | 2.0 | 14.0 | 0.00 | 0.15 | 0.00 | 78 | 1000.1 |
| 20260902172245 | 90 | 0 | 2.0 | 14.0 | 0.00 | 0.15 | 0.00 | 77 | 1000.2 |
| 20260902171256 | 90 | 0 | 2.0 | 8.0 | 0.00 | 0.15 | 0.00 | 79 | 1000.4 |
| 20260902170756 | 89 | 0 | 2.0 | 8.0 | 0.00 | 0.15 | 0.00 | 80 | 1000.5 |
| 20260902170255 | 89 | 0 | 1.0 | 6.0 | 0.00 | 0.15 | 0.00 | 81 | 1000.6 |
| 20260902170015 | 88 | 216 | 1.0 | 5.0 | 0.00 | 0.15 | 0.00 | 81 | 1000.8 |
| 20260902165256 | 88 | 163 | 1.0 | 6.0 | 0.00 | 0.15 | 0.00 | 82 | 1000.8 |
| 20260902165015 | 88 | 0 | 1.0 | 8.0 | 0.00 | 0.15 | 0.00 | 82 | 1000.8 |
| 20260902164256 | 88 | 0 | 1.0 | 8.0 | 0.00 | 0.15 | 0.00 | 82 | 1000.8 |
| 20260902163755 | 87 | 0 | 1.0 | 5.0 | 0.00 | 0.15 | 0.00 | 83 | 1000.9 |
| 20260902163255 | 87 | 0 | 2.0 | 8.0 | 0.00 | 0.15 | 0.00 | 84 | 1000.9 |
| 20260902163013 | 87 | 0 | 1.0 | 8.0 | 0.00 | 0.15 | 0.00 | 84 | 1000.9 |
| 20260902162524 | 87 | 0 | 1.0 | 4.0 | 0.00 | 0.15 | 0.00 | 85 | 1000.9 |
| 20260902161754 | 86 | 0 | 1.0 | 4.0 | 0.00 | 0.15 | 0.00 | 86 | 1000.9 |
| 20260902161253 | 86 | 0 | 1.0 | 10.0 | 0.00 | 0.15 | 0.00 | 86 | 1000.9 |
| 20260902161019 | 85 | 0 | 1.0 | 10.0 | 0.00 | 0.15 | 0.00 | 87 | 1000.9 |
| 20260902160253 | 85 | 0 | 1.0 | 4.0 | 0.00 | 0.15 | 0.00 | 87 | 1000.9 |
| 20260902155753 | 85 | 0 | 1.0 | 5.0 | 0.00 | 0.15 | 0.00 | 88 | 1000.9 |
| 20260902155253 | 85 | 0 | 1.0 | 5.0 | 0.00 | 0.15 | 0.00 | 88 | 1000.9 |
| 20260902154752 | 84 | 0 | 1.0 | 4.0 | 0.00 | 0.15 | 0.00 | 89 | 1000.8 |
| 20260902154252 | 84 | 0 | 1.0 | 4.0 | 0.00 | 0.15 | 0.00 | 90 | 1000.8 |
| 20260902154019 | 83 | 0 | 1.0 | 3.0 | 0.00 | 0.15 | 0.00 | 91 | 1000.8 |
| 20260902153250 | 83 | 0 | 1.0 | 3.0 | 0.00 | 0.15 | 0.00 | 90 | 1000.9 |
| 20260902153012 | 83 | 0 | 0.0 | 2.0 | 0.00 | 0.15 | 0.00 | 91 | 1000.9 |
| 20260902152251 | 83 | 0 | 0.0 | 5.0 | 0.00 | 0.15 | 0.00 | 91 | 1000.9 |
| 20260902151745 | 83 | 0 | 0.0 | 5.0 | 0.00 | 0.15 | 0.00 | 91 | 1000.9 |
| 20260902151245 | 82 | 209 | 0.0 | 3.0 | 0.00 | 0.15 | 0.00 | 91 | 1000.9 |
| 20260902150743 | 82 | 0 | 0.0 | 0.0 | 0.00 | 0.15 | 0.00 | 92 | 1001.0 |
| 20260902150237 | 82 | 0 | 0.0 | 0.0 | 0.00 | 0.15 | 0.00 | 92 | 1000.9 |
| 20260902145738 | 82 | 0 | 0.0 | 0.0 | 0.00 | 0.15 | 0.00 | 92 | 1001.0 |
| 20260902145234 | 82 | 0 | 0.0 | 0.0 | 0.00 | 0.15 | 0.00 | 93 | 1000.9 |
| 20260902144732 | 82 | 0 | 0.0 | 0.0 | 0.00 | 0.15 | 0.00 | 92 | 1000.9 |
| 20260902144230 | 81 | 0 | 0.0 | 0.0 | 0.00 | 0.15 | 0.00 | 92 | 1000.9 |
| 20260902143729 | 81 | 0 | 0.0 | 0.0 | 0.00 | 0.15 | 0.00 | 93 | 1000.9 |
| 20260902143712 | 81 | 0 | 0.0 | 0.0 | 0.00 | 0.15 | 0.00 | 93 | 1000.9 |
| 20260902142725 | 81 | 0 | 0.0 | 2.0 | 0.00 | 0.15 | 0.00 | 93 | 1000.9 |
| 20260902142447 | 81 | 0 | 0.0 | 2.0 | 0.00 | 0.15 | 0.00 | 93 | 1000.8 |
| 20260902141721 | 81 | 0 | 0.0 | 3.0 | 0.00 | 0.15 | 0.00 | 93 | 1000.9 |
| 20260902141219 | 81 | 0 | 0.0 | 3.0 | 0.00 | 0.15 | 0.00 | 93 | 1000.8 |
| 20260902140943 | 81 | 0 | 0.0 | 0.0 | 0.00 | 0.15 | 0.00 | 93 | 1000.7 |
| 20260902140216 | 81 | 0 | 0.0 | 1.0 | 0.00 | 0.15 | 0.00 | 93 | 1000.8 |
| 20260902135936 | 81 | 0 | 0.0 | 1.0 | 0.00 | 0.15 | 0.00 | 93 | 1000.7 |
| 20260902135215 | 81 | 0 | 0.0 | 1.0 | 0.00 | 0.15 | 0.00 | 93 | 1000.7 |
| 20260902134937 | 81 | 0 | 0.0 | 0.0 | 0.00 | 0.15 | 0.00 | 93 | 1000.7 |
| 20260902134211 | 80 | 0 | 0.0 | 0.0 | 0.00 | 0.15 | 0.00 | 93 | 1000.7 |
| 20260902133712 | 80 | 0 | 0.0 | 0.0 | 0.00 | 0.15 | 0.00 | 93 | 1000.7 |
| 20260902133209 | 80 | 0 | 0.0 | 1.0 | 0.00 | 0.15 | 0.00 | 93 | 1000.7 |
| 20260902132707 | 80 | 0 | 0.0 | 1.0 | 0.00 | 0.15 | 0.00 | 93 | 1000.7 |
| 20260902132207 | 80 | 0 | 0.0 | 0.0 | 0.00 | 0.15 | 0.00 | 93 | 1000.6 |
| 20260902131707 | 80 | 0 | 0.0 | 1.0 | 0.00 | 0.15 | 0.00 | 93 | 1000.5 |
| 20260902131207 | 80 | 0 | 0.0 | 1.0 | 0.00 | 0.15 | 0.00 | 93 | 1000.4 |
| 20260902130704 | 80 | 0 | 0.0 | 2.0 | 0.00 | 0.15 | 0.00 | 93 | 1000.4 |
| 20260902130203 | 80 | 0 | 0.0 | 2.0 | 0.00 | 0.15 | 0.00 | 93 | 1000.3 |
| 20260902125923 | 80 | 0 | 0.0 | 2.0 | 0.00 | 0.15 | 0.00 | 93 | 1000.2 |
| 20260902125159 | 80 | 0 | 0.0 | 2.0 | 0.00 | 0.15 | 0.00 | 93 | 1000.1 |
| 20260902124659 | 80 | 0 | 0.0 | 2.0 | 0.00 | 0.15 | 0.00 | 93 | 1000.0 |
| 20260902124418 | 80 | 0 | 0.0 | 2.0 | 0.00 | 0.15 | 0.00 | 93 | 999.9 |
| 20260902123700 | 80 | 0 | 0.0 | 1.0 | 0.00 | 0.15 | 0.00 | 93 | 999.9 |
| 20260902123158 | 80 | 0 | 0.0 | 3.0 | 0.00 | 0.15 | 0.00 | 93 | 999.7 |
| 20260902122920 | 80 | 0 | 1.0 | 3.0 | 0.00 | 0.15 | 0.00 | 93 | 999.5 |
| 20260902122157 | 80 | 0 | 0.0 | 2.0 | 0.00 | 0.15 | 0.00 | 93 | 999.4 |
| 20260902121918 | 80 | 0 | 0.0 | 3.0 | 0.00 | 0.15 | 0.00 | 93 | 999.3 |
| 20260902121156 | 80 | 0 | 1.0 | 3.0 | 0.00 | 0.15 | 0.00 | 93 | 999.3 |
| 20260902120656 | 80 | 0 | 1.0 | 3.0 | 0.00 | 0.15 | 0.00 | 93 | 999.1 |
| 20260902120155 | 80 | 0 | 1.0 | 3.0 | 0.00 | 0.15 | 0.00 | 93 | 999.0 |
| 20260902115655 | 80 | 0 | 0.0 | 3.0 | 0.00 | 0.15 | 0.00 | 93 | 999.0 |
| 20260902115413 | 80 | 0 | 0.0 | 2.0 | 0.00 | 0.15 | 0.00 | 93 | 999.0 |
| 20260902114655 | 80 | 0 | 0.0 | 2.0 | 0.00 | 0.15 | 0.00 | 93 | 999.0 |
| 20260902114155 | 80 | 0 | 0.0 | 2.0 | 0.00 | 0.15 | 0.00 | 93 | 999.0 |
| 20260902113655 | 80 | 0 | 0.0 | 2.0 | 0.00 | 0.15 | 0.00 | 93 | 999.0 |
| 20260902113155 | 80 | 0 | 1.0 | 2.0 | 0.00 | 0.15 | 0.00 | 93 | 998.9 |
| 20260902112655 | 80 | 0 | 1.0 | 2.0 | 0.00 | 0.15 | 0.00 | 93 | 998.8 |
| 20260902112416 | 80 | 0 | 0.0 | 3.0 | 0.00 | 0.15 | 0.00 | 93 | 998.8 |
| 20260902111656 | 79 | 0 | 1.0 | 3.0 | 0.00 | 0.15 | 0.00 | 93 | 998.8 |
| 20260902111155 | 79 | 0 | 0.0 | 2.0 | 0.00 | 0.15 | 0.00 | 93 | 998.9 |
| 20260902110656 | 79 | 0 | 0.0 | 2.0 | 0.00 | 0.15 | 0.00 | 93 | 998.8 |
| 20260902110155 | 79 | 0 | 0.0 | 1.0 | 0.00 | 0.15 | 0.00 | 93 | 998.9 |
| 20260902105919 | 79 | 0 | 0.0 | 4.0 | 0.00 | 0.15 | 0.00 | 93 | 998.9 |
| 20260902105155 | 79 | 0 | 0.0 | 4.0 | 0.00 | 0.15 | 0.00 | 93 | 999.0 |
| 20260902104655 | 79 | 0 | 0.0 | 2.0 | 0.00 | 0.15 | 0.00 | 93 | 998.8 |
| 20260902104155 | 79 | 0 | 0.0 | 0.0 | 0.00 | 0.15 | 0.00 | 93 | 998.9 |
| 20260902103656 | 79 | 0 | 0.0 | 0.0 | 0.00 | 0.15 | 0.00 | 93 | 998.9 |
| 20260902103155 | 78 | 0 | 0.0 | 0.0 | 0.00 | 0.15 | 0.00 | 93 | 998.9 |
| 20260902102655 | 78 | 0 | 0.0 | 0.0 | 0.00 | 0.15 | 0.00 | 94 | 999.0 |
| 20260902102155 | 78 | 0 | 0.0 | 0.0 | 0.00 | 0.15 | 0.00 | 94 | 999.0 |
| 20260902101655 | 78 | 0 | 0.0 | 0.0 | 0.00 | 0.15 | 0.00 | 94 | 999.0 |
| 20260902101155 | 78 | 0 | 0.0 | 0.0 | 0.00 | 0.15 | 0.00 | 94 | 998.9 |
| 20260902100655 | 78 | 0 | 0.0 | 1.0 | 0.00 | 0.15 | 0.00 | 94 | 998.9 |
| 20260902100155 | 78 | 0 | 0.0 | 1.0 | 0.00 | 0.15 | 0.00 | 94 | 998.9 |
| 20260902095655 | 78 | 0 | 0.0 | 0.0 | 0.00 | 0.15 | 0.00 | 94 | 998.9 |
| 20260902095152 | 78 | 0 | 0.0 | 0.0 | 0.00 | 0.15 | 0.00 | 95 | 999.0 |
| 20260902094652 | 78 | 0 | 0.0 | 0.0 | 0.00 | 0.15 | 0.00 | 95 | 999.0 |
| 20260902094151 | 78 | 0 | 0.0 | 0.0 | 0.00 | 0.15 | 0.00 | 95 | 999.1 |
| 20260902093911 | 78 | 0 | 0.0 | 0.0 | 0.00 | 0.15 | 0.00 | 95 | 999.2 |
| 20260902093414 | 78 | 0 | 0.0 | 0.0 | 0.00 | 0.15 | 0.00 | 95 | 999.1 |
| 20260902092653 | 77 | 0 | 0.0 | 0.0 | 0.00 | 0.15 | 0.00 | 95 | 999.1 |
| 20260902092152 | 77 | 0 | 0.0 | 0.0 | 0.00 | 0.15 | 0.00 | 95 | 999.0 |
| 20260902091651 | 78 | 0 | 0.0 | 0.0 | 0.00 | 0.15 | 0.00 | 95 | 999.0 |
| 20260902091151 | 77 | 0 | 0.0 | 0.0 | 0.00 | 0.15 | 0.00 | 95 | 999.0 |
| 20260902090651 | 78 | 0 | 0.0 | 0.0 | 0.00 | 0.15 | 0.00 | 96 | 999.0 |
| 20260902090151 | 77 | 0 | 0.0 | 0.0 | 0.00 | 0.15 | 0.00 | 96 | 999.1 |
| 20260902085651 | 77 | 0 | 0.0 | 0.0 | 0.00 | 0.15 | 0.00 | 95 | 999.0 |
| 20260902085151 | 77 | 0 | 0.0 | 0.0 | 0.00 | 0.15 | 0.00 | 95 | 999.0 |
| 20260902084651 | 77 | 0 | 0.0 | 0.0 | 0.00 | 0.15 | 0.00 | 95 | 999.0 |
| 20260902084412 | 77 | 0 | 0.0 | 0.0 | 0.00 | 0.15 | 0.00 | 95 | 999.0 |
| 20260902083650 | 77 | 0 | 0.0 | 0.0 | 0.00 | 0.15 | 0.00 | 95 | 999.0 |
| 20260902083151 | 77 | 0 | 0.0 | 0.0 | 0.00 | 0.15 | 0.00 | 95 | 998.9 |
| 20260902082651 | 77 | 0 | 0.0 | 0.0 | 0.00 | 0.15 | 0.00 | 95 | 998.9 |
| 20260902082414 | 77 | 0 | 0.0 | 0.0 | 0.00 | 0.15 | 0.00 | 95 | 998.9 |
| 20260902081915 | 77 | 0 | 0.0 | 0.0 | 0.00 | 0.15 | 0.00 | 95 | 998.9 |
| 20260902081148 | 77 | 0 | 0.0 | 0.0 | 0.00 | 0.15 | 0.00 | 95 | 998.9 |
| 20260902080648 | 77 | 0 | 0.0 | 0.0 | 0.00 | 0.15 | 0.00 | 95 | 998.9 |
| 20260902080146 | 77 | 0 | 0.0 | 0.0 | 0.00 | 0.15 | 0.00 | 95 | 998.9 |
| 20260902075647 | 77 | 0 | 0.0 | 0.0 | 0.00 | 0.15 | 0.00 | 95 | 998.9 |
| 20260902075634 | 77 | 0 | 0.0 | 0.0 | 0.00 | 0.15 | 0.00 | 95 | 998.9 |
| 20260902074647 | 77 | 0 | 0.0 | 0.0 | 0.00 | 0.15 | 0.00 | 95 | 998.8 |
| 20260902074146 | 77 | 0 | 0.0 | 0.0 | 0.00 | 0.15 | 0.00 | 95 | 998.8 |
| 20260902073908 | 77 | 0 | 0.0 | 0.0 | 0.00 | 0.15 | 0.00 | 96 | 998.9 |
| 20260902073143 | 77 | 0 | 0.0 | 0.0 | 0.00 | 0.15 | 0.00 | 96 | 999.0 |
| 20260902072642 | 77 | 0 | 0.0 | 0.0 | 0.00 | 0.15 | 0.00 | 96 | 999.0 |
| 20260902072144 | 77 | 0 | 0.0 | 0.0 | 0.00 | 0.15 | 0.00 | 96 | 999.1 |
| 20260902071642 | 77 | 0 | 0.0 | 0.0 | 0.00 | 0.15 | 0.00 | 96 | 999.2 |
| 20260902071142 | 77 | 0 | 0.0 | 0.0 | 0.00 | 0.15 | 0.00 | 96 | 999.2 |
| 20260902070909 | 77 | 0 | 0.0 | 0.0 | 0.00 | 0.16 | 0.00 | 96 | 999.2 |
| 20260902070142 | 77 | 0 | 0.0 | 0.0 | 0.00 | 0.16 | 0.00 | 96 | 999.2 |
| 20260902065901 | 77 | 0 | 0.0 | 0.0 | 0.00 | 0.16 | 0.00 | 96 | 999.1 |
| 20260902065143 | 77 | 0 | 0.0 | 0.0 | 0.00 | 0.16 | 0.00 | 96 | 999.1 |
| 20260902064643 | 77 | 0 | 0.0 | 0.0 | 0.00 | 0.16 | 0.00 | 96 | 999.1 |
| 20260902064406 | 77 | 0 | 0.0 | 0.0 | 0.00 | 0.16 | 0.00 | 96 | 999.2 |
| 20260902063643 | 77 | 0 | 0.0 | 0.0 | 0.00 | 0.16 | 0.00 | 96 | 999.3 |
| 20260902063141 | 77 | 0 | 0.0 | 0.0 | 0.00 | 0.16 | 0.00 | 96 | 999.4 |
| 20260902062642 | 77 | 0 | 0.0 | 0.0 | 0.00 | 0.16 | 0.00 | 96 | 999.4 |
| 20260902062138 | 77 | 0 | 0.0 | 0.0 | 0.00 | 0.16 | 0.00 | 96 | 999.3 |
| 20260902061906 | 77 | 0 | 0.0 | 0.0 | 0.00 | 0.16 | 0.00 | 96 | 999.3 |
| 20260902061138 | 77 | 0 | 0.0 | 0.0 | 0.00 | 0.16 | 0.00 | 96 | 999.2 |
| 20260902060638 | 77 | 0 | 0.0 | 0.0 | 0.00 | 0.16 | 0.00 | 96 | 999.1 |
| 20260902060137 | 77 | 0 | 0.0 | 0.0 | 0.00 | 0.16 | 0.00 | 96 | 999.0 |
| 20260902055636 | 77 | 0 | 0.0 | 0.0 | 0.00 | 0.16 | 0.00 | 96 | 998.9 |
| 20260902055137 | 77 | 0 | 0.0 | 0.0 | 0.00 | 0.16 | 0.00 | 96 | 999.0 |
| 20260902054634 | 77 | 0 | 0.0 | 0.0 | 0.00 | 0.16 | 0.00 | 96 | 999.0 |
| 20260902054135 | 77 | 0 | 0.0 | 0.0 | 0.00 | 0.16 | 0.00 | 96 | 999.0 |
| 20260902053856 | 77 | 0 | 0.0 | 0.0 | 0.00 | 0.16 | 0.00 | 96 | 999.0 |
| 20260902053621 | 77 | 0 | 0.0 | 0.0 | 0.00 | 0.16 | 0.00 | 96 | 999.0 |
| 20260902052629 | 77 | 0 | 0.0 | 0.0 | 0.00 | 0.16 | 0.00 | 96 | 998.9 |
| 20260902052126 | 77 | 0 | 0.0 | 1.0 | 0.00 | 0.16 | 0.00 | 96 | 998.9 |
| 20260902051627 | 78 | 0 | 0.0 | 1.0 | 0.00 | 0.16 | 0.00 | 96 | 998.9 |
| 20260902051123 | 78 | 0 | 0.0 | 1.0 | 0.00 | 0.16 | 0.00 | 96 | 999.2 |
| 20260902050624 | 78 | 0 | 0.0 | 0.0 | 0.00 | 0.16 | 0.00 | 96 | 999.2 |
| 20260902050212 | 77 | 0 | 0.0 | 0.0 | 0.00 | 0.16 | 0.00 | 96 | 999.1 |
| 20260902045119 | 78 | 0 | 0.0 | 0.0 | 0.00 | 0.16 | 0.16 | 96 | 999.1 |
| 20260902044619 | 78 | 0 | 0.0 | 1.0 | 0.00 | 0.16 | 0.16 | 96 | 999.0 |
| 20260902044119 | 78 | 0 | 0.0 | 1.0 | 0.00 | 0.16 | 0.16 | 96 | 999.1 |
| 20260902043852 | 78 | 0 | 0.0 | 0.0 | 0.00 | 0.16 | 0.16 | 96 | 999.1 |
| 20260902043119 | 78 | 0 | 0.0 | 1.0 | 0.00 | 0.16 | 0.16 | 96 | 999.1 |
| 20260902042619 | 78 | 0 | 0.0 | 1.0 | 0.00 | 0.16 | 0.16 | 96 | 999.2 |
| 20260902042120 | 78 | 0 | 0.0 | 1.0 | 0.00 | 0.16 | 0.16 | 96 | 999.1 |
| 20260902041618 | 78 | 0 | 0.0 | 1.0 | 0.00 | 0.16 | 0.16 | 96 | 999.2 |
| 20260902041119 | 78 | 0 | 0.0 | 1.0 | 0.00 | 0.16 | 0.16 | 96 | 999.3 |
| 20260902040619 | 78 | 0 | 0.0 | 0.0 | 0.00 | 0.16 | 0.16 | 96 | 999.3 |
| 20260902040118 | 78 | 0 | 0.0 | 0.0 | 0.00 | 0.16 | 0.16 | 96 | 999.3 |
| 20260902035615 | 78 | 0 | 0.0 | 0.0 | 0.00 | 0.16 | 0.16 | 96 | 999.4 |
| 20260902035115 | 78 | 0 | 0.0 | 0.0 | 0.00 | 0.16 | 0.16 | 96 | 999.3 |
| 20260902034615 | 78 | 0 | 0.0 | 0.0 | 0.00 | 0.16 | 0.16 | 96 | 999.3 |
| 20260902034115 | 78 | 0 | 0.0 | 0.0 | 0.00 | 0.16 | 0.16 | 96 | 999.4 |
| 20260902033615 | 78 | 0 | 0.0 | 0.0 | 0.00 | 0.16 | 0.16 | 95 | 999.3 |
| 20260902033115 | 78 | 0 | 0.0 | 0.0 | 0.00 | 0.16 | 0.16 | 95 | 999.3 |
| 20260902032614 | 78 | 0 | 0.0 | 0.0 | 0.00 | 0.16 | 0.16 | 95 | 999.4 |
| 20260902032334 | 78 | 0 | 0.0 | 0.0 | 0.00 | 0.16 | 0.16 | 95 | 999.4 |
| 20260902031617 | 78 | 0 | 0.0 | 0.0 | 0.00 | 0.16 | 0.16 | 95 | 999.4 |
| 20260902031331 | 78 | 0 | 0.0 | 0.0 | 0.00 | 0.16 | 0.16 | 95 | 999.4 |
| 20260902030613 | 78 | 0 | 0.0 | 0.0 | 0.00 | 0.16 | 0.16 | 95 | 999.3 |
| 20260902030114 | 78 | 0 | 0.0 | 0.0 | 0.00 | 0.16 | 0.16 | 95 | 999.2 |
| 20260902025607 | 78 | 0 | 0.0 | 0.0 | 0.00 | 0.16 | 0.16 | 95 | 999.2 |
| 20260902025107 | 78 | 0 | 0.0 | 0.0 | 0.00 | 0.16 | 0.16 | 95 | 999.2 |
| 20260902024609 | 78 | 0 | 0.0 | 0.0 | 0.00 | 0.16 | 0.16 | 95 | 999.0 |
| 20260902024107 | 78 | 0 | 0.0 | 0.0 | 0.00 | 0.16 | 0.16 | 95 | 999.0 |
| 20260902023608 | 79 | 0 | 0.0 | 0.0 | 0.00 | 0.16 | 0.16 | 95 | 998.9 |
| 20260902023107 | 79 | 0 | 0.0 | 0.0 | 0.00 | 0.16 | 0.16 | 95 | 998.9 |
| 20260902022607 | 79 | 0 | 0.0 | 0.0 | 0.00 | 0.16 | 0.16 | 95 | 998.9 |
| 20260902022106 | 79 | 0 | 0.0 | 0.0 | 0.00 | 0.16 | 0.16 | 95 | 998.8 |
| 20260902021607 | 79 | 0 | 0.0 | 0.0 | 0.00 | 0.16 | 0.16 | 95 | 998.5 |
| 20260902021107 | 79 | 0 | 0.0 | 0.0 | 0.00 | 0.16 | 0.16 | 94 | 998.5 |
| 20260902020607 | 79 | 0 | 0.0 | 0.0 | 0.00 | 0.16 | 0.16 | 94 | 998.5 |
| 20260902020108 | 79 | 0 | 0.0 | 0.0 | 0.00 | 0.16 | 0.16 | 94 | 998.6 |
| 20260902015606 | 79 | 0 | 0.0 | 0.0 | 0.00 | 0.16 | 0.16 | 94 | 998.5 |
| 20260902015107 | 79 | 0 | 0.0 | 0.0 | 0.00 | 0.16 | 0.16 | 94 | 998.5 |
| 20260902014606 | 79 | 0 | 0.0 | 0.0 | 0.00 | 0.16 | 0.16 | 94 | 998.3 |
| 20260902014107 | 79 | 0 | 0.0 | 0.0 | 0.00 | 0.16 | 0.16 | 94 | 998.3 |
| 20260902013607 | 79 | 0 | 0.0 | 0.0 | 0.00 | 0.16 | 0.16 | 94 | 998.2 |
| 20260902013106 | 79 | 0 | 0.0 | 0.0 | 0.00 | 0.16 | 0.16 | 94 | 998.2 |
| 20260902013044 | 79 | 0 | 0.0 | 0.0 | 0.00 | 0.16 | 0.16 | 94 | 998.2 |
| 20260902012059 | 79 | 0 | 0.0 | 0.0 | 0.00 | 0.16 | 0.16 | 94 | 998.1 |
| 20260902011559 | 79 | 0 | 0.0 | 0.0 | 0.00 | 0.16 | 0.16 | 94 | 998.1 |
| 20260902011059 | 79 | 0 | 0.0 | 0.0 | 0.00 | 0.16 | 0.16 | 94 | 998.1 |
| 20260902010559 | 79 | 0 | 0.0 | 0.0 | 0.00 | 0.16 | 0.16 | 94 | 998.1 |
| 20260902010100 | 79 | 0 | 0.0 | 0.0 | 0.00 | 0.16 | 0.16 | 93 | 998.2 |
| 20260902005600 | 79 | 0 | 0.0 | 0.0 | 0.00 | 0.16 | 0.16 | 93 | 998.3 |
| 20260902005100 | 79 | 0 | 0.0 | 0.0 | 0.00 | 0.16 | 0.16 | 93 | 998.2 |
| 20260902004602 | 79 | 0 | 0.0 | 0.0 | 0.00 | 0.16 | 0.16 | 93 | 998.4 |
| 20260902004055 | 79 | 0 | 0.0 | 0.0 | 0.00 | 0.16 | 0.16 | 93 | 998.4 |
| 20260902003556 | 80 | 0 | 0.0 | 0.0 | 0.00 | 0.16 | 0.16 | 93 | 998.6 |
| 20260902003055 | 80 | 0 | 0.0 | 0.0 | 0.00 | 0.16 | 0.16 | 93 | 998.6 |
| 20260902002554 | 80 | 0 | 0.0 | 0.0 | 0.00 | 0.16 | 0.16 | 93 | 998.5 |
| 20260902002056 | 79 | 0 | 0.0 | 0.0 | 0.00 | 0.16 | 0.16 | 93 | 998.4 |
| 20260902001555 | 79 | 0 | 0.0 | 0.0 | 0.00 | 0.16 | 0.16 | 92 | 998.3 |
| 20260902001054 | 80 | 0 | 0.0 | 0.0 | 0.01 | 0.16 | 0.16 | 92 | 998.3 |
| 20260902000554 | 79 | 0 | 0.0 | 0.0 | 0.02 | 0.16 | 0.16 | 92 | 998.2 |
| 20260902000055 | 79 | 0 | 0.0 | 0.0 | 0.03 | 0.16 | 0.16 | 92 | 998.2 |
| 20260901235644 | 79 | 0 | 0.0 | 0.0 | 0.04 | 0.16 | 0.16 | 92 | 998.3 |
| 20260901234819 | 79 | 0 | 0.0 | 0.0 | 0.06 | 0.16 | 0.16 | 91 | 998.4 |
| 20260901234051 | 79 | 0 | 0.0 | 0.0 | 0.06 | 0.16 | 0.16 | 91 | 998.5 |
| 20260901233813 | 79 | 0 | 0.0 | 0.0 | 0.07 | 0.19 | 0.16 | 91 | 998.5 |
| 20260901233050 | 79 | 0 | 0.0 | 0.0 | 0.08 | 0.32 | 0.16 | 91 | 998.5 |
| 20260901232551 | 79 | 0 | 0.0 | 0.0 | 0.10 | 0.33 | 0.16 | 90 | 998.5 |
| 20260901232051 | 79 | 0 | 0.0 | 0.0 | 0.12 | 0.33 | 0.16 | 90 | 998.5 |
| 20260901231553 | 79 | 0 | 0.0 | 0.0 | 0.15 | 0.33 | 0.16 | 89 | 998.6 |
| 20260901231533 | 79 | 0 | 0.0 | 1.0 | 0.14 | 0.32 | 0.15 | 89 | 998.7 |
| 20260901230546 | 79 | 0 | 0.0 | 1.0 | 0.13 | 0.31 | 0.14 | 89 | 998.8 |
| 20260901230046 | 79 | 0 | 0.0 | 0.0 | 0.12 | 0.30 | 0.13 | 88 | 998.9 |
| 20260901225545 | 79 | 0 | 0.0 | 0.0 | 0.11 | 0.29 | 0.12 | 88 | 999.0 |
| 20260901225306 | 80 | 0 | 0.0 | 0.0 | 0.10 | 0.28 | 0.11 | 87 | 999.0 |
| 20260901225028 | 80 | 0 | 0.0 | 1.0 | 0.09 | 0.27 | 0.10 | 86 | 999.2 |
| 20260901224043 | 80 | 0 | 0.0 | 1.0 | 0.09 | 0.27 | 0.10 | 86 | 999.2 |
| 20260901223811 | 80 | 0 | 0.0 | 1.0 | 0.08 | 0.26 | 0.09 | 84 | 999.3 |
| 20260901223306 | 81 | 0 | 1.0 | 3.0 | 0.07 | 0.25 | 0.09 | 84 | 999.4 |
| 20260901222542 | 82 | 0 | 2.0 | 4.0 | 0.05 | 0.23 | 0.06 | 83 | 999.6 |
| 20260901222533 | 83 | 0 | 2.0 | 10.0 | 0.03 | 0.21 | 0.04 | 80 | 999.7 |
| 20260901221541 | 85 | 0 | 2.0 | 10.0 | 0.00 | 0.18 | 0.01 | 77 | 999.5 |
| 20260901221040 | 87 | 0 | 3.0 | 8.0 | 0.00 | 0.18 | 0.01 | 74 | 999.4 |
| 20260901220541 | 88 | 0 | 3.0 | 12.0 | 0.00 | 0.18 | 0.01 | 73 | 999.7 |
| 20260901220040 | 89 | 0 | 2.0 | 12.0 | 0.00 | 0.18 | 0.01 | 69 | 999.5 |
| 20260901215538 | 91 | 350 | 1.0 | 4.0 | 0.00 | 0.18 | 0.01 | 68 | 999.3 |